Monday, November 20, 2017, 4:10 AM GMT
Back to Local

CWWZ, Port Weller, Ont.

Location: , , Canada Lat: 43.25
Local Time: 4:10 AM GMT ( 4:10 GMT) Lon: -79.217
Time Zone: GMT Elev: 259 ft

Show me the last for .
Show Coded

Time T Td Feel RH Dir Speed Gust Alt SLP Vis Weather Sky Remarks
2017-11-20 03:00 35 29 24 78 290° 20 - - 29.86 0 Peak wind: 29 mph (26 kts) from 290° at 25 min
2017-11-20 02:00 35 27 24 71 290° 18 - - 29.85 0 Peak wind: 26 mph (23 kts) from 300° at 46 min
2017-11-20 01:00 35 27 24 72 300° 21 - - 29.84 0 Peak wind: 28 mph (25 kts) from 290° at 12 min
2017-11-20 00:00 36 27 22 69 300° 25 32 - 29.81 0 Peak wind: 34 mph (30 kts) from 300° at 42 min
2017-11-19 23:00 36 29 24 73 280° 25 - - 29.79 0 Peak wind: 36 mph (32 kts) from 300° at 01 min
2017-11-19 22:00 37 30 25 73 290° 30 - - 29.76 0 Peak wind: 37 mph (33 kts) from 310° at 04 min
2017-11-19 21:00 37 33 23 86 300° 35 - - 29.74 0 Peak wind: 40 mph (35 kts) from 300° at 42 min
2017-11-19 20:00 39 31 28 73 280° 29 - - 29.69 0 Peak wind: 34 mph (30 kts) from 280° at 28 min
2017-11-19 19:00 41 32 30 69 300° 21 26 - 29.67 0 Peak wind: 26 mph (23 kts) from 290° at 58 min
2017-11-19 18:00 40 33 31 74 310° 20 - - 29.67 0 Peak wind: 24 mph (21 kts) from 300° at 01 min
2017-11-19 17:00 40 34 29 79 300° 23 - - 29.67 0 Peak wind: 31 mph (27 kts) from 290° at 38 min
2017-11-19 16:00 41 31 31 68 280° 23 - - 29.66 0 Peak wind: 31 mph (27 kts) from 280° at 24 min
2017-11-19 15:00 42 31 31 66 280° 25 - - 29.64 0 Peak wind: 31 mph (27 kts) from 280° at 19 min
2017-11-19 14:00 40 32 29 72 290° 25 - - 29.61 0 Peak wind: 33 mph (29 kts) from 300° at 11 min
2017-11-19 13:00 40 33 29 77 290° 26 - - 29.58 0 Peak wind: 32 mph (28 kts) from 290° at 47 min
2017-11-19 12:00 40 34 27 79 290° 25 32 - 29.54 0 Peak wind: 33 mph (29 kts) from 300° at 31 min
2017-11-19 11:00 40 33 27 77 300° 30 37 - 29.49 0 Peak wind: 36 mph (32 kts) from 310° at 58 min
2017-11-19 10:00 40 36 28 84 310° 29 - - 29.44 0 Peak wind: 44 mph (39 kts) from 310° at 00 min
Pressure rising rapidly
2017-11-19 09:00 38 36 24 89 310° 36 44 - 29.38 0 Peak wind: 43 mph (38 kts) from 310° at 57 min
Pressure rising rapidly
1-hr Precip Total: 0.01"
2017-11-19 08:00 38 36 25 92 320° 35 - - 29.30 0 Peak wind: 40 mph (35 kts) from 320° at 49 min
Pressure rising rapidly
1-hr Precip Total: 0.02"
2017-11-19 07:00 39 37 26 93 320° 33 39 - 29.22 0 Peak wind: 43 mph (38 kts) from 320° at 07 min
Pressure rising rapidly
1-hr Precip Total: 0.06"
2017-11-19 06:00 41 40 28 94 330° 36 41 - 29.14 0 Peak wind: 41 mph (36 kts) from 330° at 35 min
1-hr Precip Total: 0.06"
2017-11-19 05:00 43 42 31 97 330° 29 35 - 29.11 0 Peak wind: 34 mph (30 kts) from 330° at 56 min
1-hr Precip Total: 0.10"

Support USWX by starting your Amazon purchase here.